Time,TemperatureF,DewpointF,PressureIn,WindDirection,WindDirectionDegrees,WindSpeedMPH,WindSpeedGustMPH,Humidity,HourlyPrecipIn,Conditions,Clouds,dailyrainin,SolarRadiationWatts/m^2,SoftwareType,DateUTC
2013-06-27 00:01:00,71.0,68.0,29.74,SSW,207,0.0,-999.0,91,-99.99,,,-99.99,0.000000,,2013-06-27 04:01:00,
2013-06-27 00:11:00,71.0,68.0,29.74,SSW,207,0.0,-999.0,91,-99.99,,,-99.99,0.000000,,2013-06-27 04:11:00,
2013-06-27 00:32:00,70.0,68.0,29.74,SSW,207,0.0,-999.0,92,-99.99,,,-99.99,0.000000,,2013-06-27 04:32:00,
2013-06-27 00:42:00,69.0,68.0,29.72,SSW,207,0.0,-999.0,95,-99.99,,,-99.99,0.000000,,2013-06-27 04:42:00,
2013-06-27 00:53:00,69.0,68.0,29.72,SSW,207,0.0,-999.0,95,-99.99,,,-99.99,0.000000,,2013-06-27 04:53:00,
2013-06-27 01:02:00,69.0,68.0,29.72,SSW,207,0.0,-999.0,95,-99.99,,,-99.99,0.000000,,2013-06-27 05:02:00,
2013-06-27 01:12:00,69.0,68.0,29.72,SSW,207,0.0,-999.0,95,-99.99,,,-99.99,0.000000,,2013-06-27 05:12:00,
2013-06-27 01:22:00,69.0,68.0,29.72,SSW,207,0.0,-999.0,95,-99.99,,,-99.99,0.000000,,2013-06-27 05:22:00,
2013-06-27 01:32:00,69.0,68.0,29.72,SSW,207,0.0,-999.0,95,-99.99,,,-99.99,0.000000,,2013-06-27 05:32:00,
2013-06-27 01:42:00,69.0,68.0,29.72,SSW,207,0.0,-999.0,95,-99.99,,,-99.99,0.000000,,2013-06-27 05:42:00,
2013-06-27 01:53:00,69.0,68.0,29.72,SSW,207,0.0,-999.0,95,-99.99,,,-99.99,0.000000,,2013-06-27 05:53:00,
2013-06-27 02:02:00,68.0,67.0,29.72,SSW,207,0.0,-999.0,95,-99.99,,,-99.99,0.000000,,2013-06-27 06:02:00,
2013-06-27 02:12:00,68.0,67.0,29.71,SSW,207,0.0,-999.0,95,-99.99,,,-99.99,0.000000,,2013-06-27 06:12:00,
2013-06-27 02:34:00,68.0,67.0,29.71,SSW,207,0.0,-999.0,95,-99.99,,,-99.99,0.000000,,2013-06-27 06:34:00,
2013-06-27 02:43:00,68.0,67.0,29.71,SSW,207,0.0,-999.0,95,-99.99,,,-99.99,0.000000,,2013-06-27 06:43:00,
2013-06-27 02:53:00,68.0,67.0,29.71,SSW,207,0.0,-999.0,95,-99.99,,,-99.99,0.000000,,2013-06-27 06:53:00,
2013-06-27 03:02:00,68.0,67.0,29.71,SSW,207,0.0,-999.0,95,-99.99,,,-99.99,0.000000,,2013-06-27 07:02:00,
2013-06-27 03:12:00,68.0,67.0,29.70,SSW,207,0.0,-999.0,95,-99.99,,,-99.99,0.000000,,2013-06-27 07:12:00,
2013-06-27 03:22:00,68.0,67.0,29.70,SSW,207,0.0,-999.0,96,-99.99,,,-99.99,0.000000,,2013-06-27 07:22:00,
2013-06-27 03:33:00,68.0,67.0,29.70,SSW,207,0.0,-999.0,96,-99.99,,,-99.99,0.000000,,2013-06-27 07:33:00,
2013-06-27 03:42:00,68.0,67.0,29.69,SSW,207,0.0,-999.0,96,-99.99,,,-99.99,0.000000,,2013-06-27 07:42:00,
2013-06-27 03:52:00,68.0,67.0,29.69,SSW,207,0.0,-999.0,96,-99.99,,,-99.99,0.000000,,2013-06-27 07:52:00,
2013-06-27 04:01:00,68.0,67.0,29.69,SSW,207,0.0,-999.0,96,-99.99,,,-99.99,0.000000,,2013-06-27 08:01:00,
2013-06-27 04:11:00,68.0,67.0,29.67,SSW,207,0.0,-999.0,96,-99.99,,,-99.99,0.000000,,2013-06-27 08:11:00,
2013-06-27 04:34:00,68.0,67.0,29.67,SSW,207,0.0,-999.0,96,-99.99,,,-99.99,0.000000,,2013-06-27 08:34:00,
2013-06-27 04:43:00,68.0,67.0,29.67,SSW,207,0.0,-999.0,97,-99.99,,,-99.99,0.000000,,2013-06-27 08:43:00,
2013-06-27 04:52:00,68.0,67.0,29.68,SSW,207,0.0,-999.0,97,-99.99,,,-99.99,0.000000,,2013-06-27 08:52:00,
2013-06-27 05:02:00,68.0,67.0,29.68,SSW,207,0.0,-999.0,97,-99.99,,,-99.99,0.000000,,2013-06-27 09:02:00,
2013-06-27 05:11:00,68.0,67.0,29.67,SSW,203,0.0,-999.0,97,-99.99,,,-99.99,0.000000,,2013-06-27 09:11:00,
2013-06-27 05:22:00,68.0,67.0,29.67,SSW,203,0.0,-999.0,97,-99.99,,,-99.99,0.000000,,2013-06-27 09:22:00,
2013-06-27 05:34:00,68.0,67.0,29.67,SSW,203,0.0,-999.0,97,-99.99,,,-99.99,0.000000,,2013-06-27 09:34:00,
2013-06-27 05:43:00,68.0,67.0,29.67,SSW,194,0.0,-999.0,97,-99.99,,,-99.99,0.000000,,2013-06-27 09:43:00,
2013-06-27 05:53:00,68.0,67.0,29.67,SSW,194,0.0,-999.0,97,-99.99,,,-99.99,0.000000,,2013-06-27 09:53:00,
2013-06-27 06:01:00,68.0,67.0,29.67,SSW,194,0.0,-999.0,97,-99.99,,,-99.99,0.000000,,2013-06-27 10:01:00,
2013-06-27 06:11:00,68.0,67.0,29.67,SSW,194,0.0,-999.0,97,-99.99,,,-99.99,0.000000,,2013-06-27 10:11:00,
2013-06-27 06:32:00,68.0,67.0,29.67,SSW,194,0.0,-999.0,97,-99.99,,,-99.99,5.000000,,2013-06-27 10:32:00,
2013-06-27 06:44:00,68.0,67.0,29.66,SSW,194,0.0,-999.0,97,-99.99,,,-99.99,14.000000,,2013-06-27 10:44:00,
2013-06-27 07:02:00,68.0,67.0,29.66,SSW,194,0.0,-999.0,97,-99.99,,,-99.99,19.000000,,2013-06-27 11:02:00,
2013-06-27 07:12:00,68.0,67.0,29.67,SSW,194,0.0,-999.0,97,-99.99,,,-99.99,7.000000,,2013-06-27 11:12:00,
2013-06-27 07:22:00,68.0,67.0,29.67,SSW,194,0.0,-999.0,97,-99.99,,,-99.99,7.000000,,2013-06-27 11:22:00,
2013-06-27 07:33:00,68.0,67.0,29.66,South,190,1.0,-999.0,97,-99.99,,,-99.99,25.000000,,2013-06-27 11:33:00,
2013-06-27 07:43:00,68.0,67.0,29.66,South,188,1.0,-999.0,97,-99.99,,,-99.99,19.000000,,2013-06-27 11:43:00,
2013-06-27 07:52:00,68.0,67.0,29.66,South,188,1.0,-999.0,97,-99.99,,,-99.99,19.000000,,2013-06-27 11:52:00,
2013-06-27 08:02:00,68.0,67.0,29.66,South,188,0.0,-999.0,98,-99.99,,,-99.99,18.000000,,2013-06-27 12:02:00,
2013-06-27 08:34:00,68.0,67.0,29.66,SSW,193,2.0,-999.0,98,-99.99,,,-99.99,28.000000,,2013-06-27 12:34:00,
2013-06-27 08:42:00,68.0,67.0,29.66,South,184,1.0,-999.0,98,-99.99,,,-99.99,26.000000,,2013-06-27 12:42:00,
2013-06-27 09:01:00,67.0,66.0,29.65,SSW,193,1.0,-999.0,98,-99.99,,,-99.99,39.000000,,2013-06-27 13:01:00,
2013-06-27 09:11:00,67.0,66.0,29.66,South,174,2.0,-999.0,98,-99.99,,,-99.99,56.000000,,2013-06-27 13:11:00,
2013-06-27 09:34:00,67.0,66.0,29.65,South,175,0.0,-999.0,98,-99.99,,,-99.99,51.000000,,2013-06-27 13:34:00,
2013-06-27 09:43:00,67.0,66.0,29.65,South,175,0.0,-999.0,98,-99.99,,,-99.99,54.000000,,2013-06-27 13:43:00,
2013-06-27 09:52:00,67.0,66.0,29.65,South,175,0.0,-999.0,98,-99.99,,,-99.99,54.000000,,2013-06-27 13:52:00,
2013-06-27 10:02:00,67.0,66.0,29.65,South,175,0.0,-999.0,98,-99.99,,,-99.99,69.000000,,2013-06-27 14:02:00,
2013-06-27 10:12:00,67.0,66.0,29.65,South,175,0.0,-999.0,98,-99.99,,,-99.99,105.000000,,2013-06-27 14:12:00,
2013-06-27 10:22:00,67.0,66.0,29.65,South,175,0.0,-999.0,98,-99.99,,,-99.99,105.000000,,2013-06-27 14:22:00,
2013-06-27 10:33:00,67.0,67.0,29.65,South,174,0.0,-999.0,99,-99.99,,,-99.99,139.000000,,2013-06-27 14:33:00,
2013-06-27 10:43:00,68.0,67.0,29.65,SSE,167,1.0,-999.0,98,-99.99,,,-99.99,181.000000,,2013-06-27 14:43:00,
2013-06-27 10:52:00,68.0,67.0,29.64,SSE,156,1.0,-999.0,98,-99.99,,,-99.99,88.000000,,2013-06-27 14:52:00,
2013-06-27 11:22:00,68.0,67.0,29.64,SSE,157,0.0,-999.0,98,-99.99,,,-99.99,19.000000,,2013-06-27 15:22:00,
2013-06-27 11:33:00,68.0,67.0,29.65,SSW,205,1.0,-999.0,98,-99.99,,,-99.99,54.000000,,2013-06-27 15:33:00,
2013-06-27 12:02:00,68.0,67.0,29.64,SSW,194,2.0,-999.0,98,-99.99,,,-99.99,111.000000,,2013-06-27 16:02:00,
2013-06-27 12:34:00,68.0,67.0,29.63,South,176,3.0,-999.0,98,-99.99,,,-99.99,54.000000,,2013-06-27 16:34:00,
2013-06-27 12:43:00,68.0,67.0,29.63,SSW,213,3.0,-999.0,98,-99.99,,,-99.99,204.000000,,2013-06-27 16:43:00,
2013-06-27 12:53:00,68.0,67.0,29.63,SSW,213,3.0,-999.0,98,-99.99,,,-99.99,204.000000,,2013-06-27 16:53:00,
2013-06-27 13:02:00,68.0,67.0,29.62,SSW,198,1.0,-999.0,98,-99.99,,,-99.99,346.000000,,2013-06-27 17:02:00,
2013-06-27 13:11:00,69.0,68.0,29.62,SSW,207,2.0,-999.0,97,-99.99,,,-99.99,469.000000,,2013-06-27 17:11:00,
2013-06-27 13:22:00,69.0,68.0,29.62,SSW,207,2.0,-999.0,97,-99.99,,,-99.99,469.000000,,2013-06-27 17:22:00,
2013-06-27 13:33:00,70.0,69.0,29.61,WSW,238,2.0,-999.0,96,-99.99,,,-99.99,355.000000,,2013-06-27 17:33:00,
2013-06-27 13:43:00,70.0,68.0,29.61,SW,216,2.0,-999.0,95,-99.99,,,-99.99,114.000000,,2013-06-27 17:43:00,
2013-06-27 13:53:00,70.0,68.0,29.61,SW,216,2.0,-999.0,95,-99.99,,,-99.99,114.000000,,2013-06-27 17:53:00,
2013-06-27 14:01:00,69.0,68.0,29.61,SSW,207,1.0,-999.0,96,-99.99,,,-99.99,378.000000,,2013-06-27 18:01:00,
2013-06-27 14:32:00,69.0,68.0,29.60,SSW,205,1.0,-999.0,96,-99.99,,,-99.99,330.000000,,2013-06-27 18:32:00,
2013-06-27 14:44:00,70.0,69.0,29.60,SSW,213,1.0,-999.0,97,-99.99,,,-99.99,485.000000,,2013-06-27 18:44:00,
2013-06-27 14:52:00,70.0,69.0,29.60,SSW,213,1.0,-999.0,97,-99.99,,,-99.99,485.000000,,2013-06-27 18:52:00,
2013-06-27 15:01:00,71.0,69.0,29.59,SW,227,2.0,-999.0,94,-99.99,,,-99.99,357.000000,,2013-06-27 19:01:00,
2013-06-27 15:11:00,73.0,71.0,29.58,South,174,1.0,-999.0,92,-99.99,,,-99.99,898.000000,,2013-06-27 19:11:00,
2013-06-27 15:23:00,73.0,71.0,29.58,South,174,1.0,-999.0,92,-99.99,,,-99.99,898.000000,,2013-06-27 19:23:00,
2013-06-27 15:34:00,75.0,71.0,29.58,West,278,1.0,-999.0,87,-99.99,,,-99.99,431.000000,,2013-06-27 19:34:00,
2013-06-27 15:42:00,73.0,69.0,29.58,SSW,198,2.0,-999.0,88,-99.99,,,-99.99,390.000000,,2013-06-27 19:42:00,
2013-06-27 15:53:00,74.0,70.0,29.58,SSW,211,2.0,-999.0,86,-99.99,,,-99.99,369.000000,,2013-06-27 19:53:00,
2013-06-27 16:02:00,74.0,70.0,29.58,SSW,211,2.0,-999.0,86,-99.99,,,-99.99,369.000000,,2013-06-27 20:02:00,
2013-06-27 16:11:00,74.0,70.0,29.57,SW,223,2.0,-999.0,87,-99.99,,,-99.99,408.000000,,2013-06-27 20:11:00,
2013-06-27 16:38:00,75.0,69.0,29.57,West,271,2.0,-999.0,83,-99.99,,,-99.99,276.000000,,2013-06-27 20:38:00,
2013-06-27 16:47:00,74.0,69.0,29.57,SSW,205,3.0,-999.0,85,-99.99,,,-99.99,513.000000,,2013-06-27 20:47:00,
2013-06-27 16:54:00,74.0,70.0,29.57,South,191,1.0,-999.0,87,-99.99,,,-99.99,854.000000,,2013-06-27 20:54:00,
2013-06-27 17:06:00,74.0,70.0,29.57,South,191,1.0,-999.0,87,-99.99,,,-99.99,854.000000,,2013-06-27 21:06:00,
2013-06-27 17:16:00,74.0,70.0,29.56,WSW,250,1.0,-999.0,87,-99.99,,,-99.99,271.000000,,2013-06-27 21:16:00,
2013-06-27 17:25:00,74.0,70.0,29.56,WSW,250,1.0,-999.0,87,-99.99,,,-99.99,271.000000,,2013-06-27 21:25:00,
2013-06-27 17:36:00,74.0,68.0,29.55,SSW,206,3.0,-999.0,82,-99.99,,,-99.99,626.000000,,2013-06-27 21:36:00,
2013-06-27 17:48:00,75.0,69.0,29.55,West,268,1.0,-999.0,82,-99.99,,,-99.99,701.000000,,2013-06-27 21:48:00,
2013-06-27 17:53:00,75.0,69.0,29.55,SW,235,2.0,-999.0,81,-99.99,,,-99.99,104.000000,,2013-06-27 21:53:00,
2013-06-27 18:06:00,75.0,69.0,29.55,SW,235,2.0,-999.0,81,-99.99,,,-99.99,104.000000,,2013-06-27 22:06:00,
2013-06-27 18:16:00,74.0,68.0,29.55,SSW,207,1.0,-999.0,83,-99.99,,,-99.99,197.000000,,2013-06-27 22:16:00,
2013-06-27 18:25:00,74.0,68.0,29.55,SSW,207,1.0,-999.0,83,-99.99,,,-99.99,197.000000,,2013-06-27 22:25:00,
2013-06-27 18:35:00,73.0,68.0,29.54,South,170,2.0,-999.0,85,-99.99,,,-99.99,76.000000,,2013-06-27 22:35:00,
2013-06-27 18:48:00,73.0,69.0,29.55,West,259,0.0,-999.0,87,-99.99,,,-99.99,251.000000,,2013-06-27 22:48:00,
2013-06-27 18:57:00,73.0,66.0,29.55,WSW,246,2.0,-999.0,80,-99.99,,,-99.99,144.000000,,2013-06-27 22:57:00,
2013-06-27 19:07:00,73.0,66.0,29.55,WSW,246,2.0,-999.0,80,-99.99,,,-99.99,144.000000,,2013-06-27 23:07:00,
2013-06-27 19:17:00,74.0,67.0,29.54,SSW,200,1.0,-999.0,80,-99.99,,,-99.99,132.000000,,2013-06-27 23:17:00,
2013-06-27 19:36:00,74.0,67.0,29.55,West,270,1.0,-999.0,78,-99.99,,,-99.99,58.000000,,2013-06-27 23:36:00,
2013-06-27 19:46:00,74.0,67.0,29.55,West,262,1.0,-999.0,78,-99.99,,,-99.99,44.000000,,2013-06-27 23:46:00,
2013-06-27 19:55:00,73.0,66.0,29.56,WSW,244,1.0,-999.0,79,-99.99,,,-99.99,72.000000,,2013-06-27 23:55:00,
2013-06-27 20:07:00,73.0,66.0,29.56,WSW,244,1.0,-999.0,79,-99.99,,,-99.99,72.000000,,2013-06-28 00:07:00,
2013-06-27 20:16:00,73.0,67.0,29.57,West,265,1.0,-999.0,81,-99.99,,,-99.99,44.000000,,2013-06-28 00:16:00,
2013-06-27 20:29:00,73.0,67.0,29.57,West,265,1.0,-999.0,81,-99.99,,,-99.99,44.000000,,2013-06-28 00:29:00,
2013-06-27 20:36:00,72.0,66.0,29.57,NW,311,0.0,-999.0,82,-99.99,,,-99.99,30.000000,,2013-06-28 00:36:00,
2013-06-27 20:45:00,72.0,67.0,29.57,SSW,206,1.0,-999.0,83,-99.99,,,-99.99,9.000000,,2013-06-28 00:45:00,
2013-06-27 20:54:00,71.0,66.0,29.57,NNW,336,0.0,-999.0,84,-99.99,,,-99.99,5.000000,,2013-06-28 00:54:00,
2013-06-27 21:09:00,71.0,66.0,29.57,NNW,336,0.0,-999.0,84,-99.99,,,-99.99,5.000000,,2013-06-28 01:09:00,
2013-06-27 21:15:00,71.0,66.0,29.57,WSW,240,1.0,-999.0,85,-99.99,,,-99.99,0.000000,,2013-06-28 01:15:00,
2013-06-27 21:26:00,71.0,66.0,29.57,WSW,240,1.0,-999.0,85,-99.99,,,-99.99,0.000000,,2013-06-28 01:26:00,
2013-06-27 21:36:00,70.0,66.0,29.57,SW,221,1.0,-999.0,87,-99.99,,,-99.99,0.000000,,2013-06-28 01:36:00,
2013-06-27 21:47:00,69.0,65.0,29.57,NNW,335,2.0,-999.0,87,-99.99,,,-99.99,0.000000,,2013-06-28 01:47:00,
2013-06-27 21:56:00,69.0,65.0,29.57,NNW,335,2.0,-999.0,87,-99.99,,,-99.99,0.000000,,2013-06-28 01:56:00,
2013-06-27 22:07:00,68.0,65.0,29.58,NW,326,1.0,-999.0,89,-99.99,,,-99.99,0.000000,,2013-06-28 02:07:00,
2013-06-27 22:37:00,67.0,64.0,29.59,WNW,297,0.0,-999.0,90,-99.99,,,-99.99,0.000000,,2013-06-28 02:37:00,
2013-06-27 22:49:00,67.0,64.0,29.59,NW,313,0.0,-999.0,91,-99.99,,,-99.99,0.000000,,2013-06-28 02:49:00,
2013-06-27 22:55:00,67.0,64.0,29.59,NW,313,0.0,-999.0,91,-99.99,,,-99.99,0.000000,,2013-06-28 02:55:00,
2013-06-27 23:38:00,65.0,63.0,29.58,NW,312,0.0,-999.0,94,-99.99,,,-99.99,0.000000,,2013-06-28 03:38:00,
2013-06-27 23:45:00,65.0,63.0,29.57,NW,312,0.0,-999.0,94,-99.99,,,-99.99,0.000000,,2013-06-28 03:45:00,
2013-06-27 23:55:00,65.0,63.0,29.57,NW,312,0.0,-999.0,94,-99.99,,,-99.99,0.000000,,2013-06-28 03:55:00,